TimeAKST,TemperatureF,Dew PointF,Humidity,Sea Level PressureIn,VisibilityMPH,Wind Direction,Wind SpeedMPH,Gust SpeedMPH,PrecipitationIn,Events,Conditions,WindDirDegrees,DateUTC
12:53 AM,41.0,37.0,86,29.78,6.0,East,15.0,21.9,0.17,Rain,Rain,100,2013-02-08 09:53:00
1:53 AM,41.0,37.9,89,29.78,5.0,ESE,16.1,-,0.17,Rain,Rain,110,2013-02-08 10:53:00
3:53 AM,41.0,37.9,89,29.75,4.0,ESE,11.5,-,0.17,Rain,Rain,120,2013-02-08 12:53:00
4:53 AM,41.0,37.9,89,29.75,4.0,ESE,11.5,19.6,0.22,Rain,Rain,110,2013-02-08 13:53:00
5:53 AM,41.0,39.0,93,29.75,5.0,ESE,13.8,-,0.20,Rain,Rain,110,2013-02-08 14:53:00
6:53 AM,39.0,37.9,96,29.77,2.0,East,11.5,-,0.10,Rain,Rain,100,2013-02-08 15:53:00
7:09 AM,39.2,39.2,100,29.78,2.5,East,8.1,-,0.01,Rain,Light Rain,100,2013-02-08 16:09:00
7:34 AM,39.2,39.2,100,29.78,4.0,ESE,9.2,-,0.05,Rain,Light Rain,110,2013-02-08 16:34:00
7:53 AM,39.0,39.0,100,29.79,2.0,SE,9.2,-,0.06,Rain,Light Rain,140,2013-02-08 16:53:00
8:01 AM,39.2,39.2,100,29.80,1.5,ESE,8.1,-,0.01,Rain,Light Rain,120,2013-02-08 17:01:00
8:10 AM,39.2,39.2,100,29.80,1.2,ESE,6.9,-,0.03,Rain,Light Rain,110,2013-02-08 17:10:00
8:53 AM,39.9,39.9,100,29.81,1.2,ESE,6.9,-,0.04,,Overcast,110,2013-02-08 17:53:00
9:27 AM,39.2,39.2,100,29.82,3.0,ESE,5.8,-,N/A,,Overcast,110,2013-02-08 18:27:00
9:53 AM,39.9,39.9,100,29.83,5.0,East,5.8,-,0.01,,Overcast,100,2013-02-08 18:53:00
10:53 AM,41.0,41.0,100,29.86,2.5,East,4.6,-,0.00,Rain,Light Rain,100,2013-02-08 19:53:00
11:02 AM,41.0,41.0,100,29.86,1.2,Calm,Calm,-,0.00,,Overcast,0,2013-02-08 20:02:00
11:12 AM,41.0,41.0,100,29.86,1.0,Calm,Calm,-,0.01,Rain,Light Rain,0,2013-02-08 20:12:00
11:34 AM,42.8,42.8,100,29.87,3.0,SW,6.9,-,0.01,,Overcast,230,2013-02-08 20:34:00
11:53 AM,42.1,42.1,100,29.87,7.0,SW,6.9,-,0.01,Rain,Light Rain,230,2013-02-08 20:53:00
12:05 PM,42.8,42.8,100,29.88,2.0,SW,9.2,-,0.00,Rain,Light Rain,220,2013-02-08 21:05:00
12:16 PM,42.8,42.8,100,29.88,7.0,SW,8.1,-,0.01,Rain,Light Rain,230,2013-02-08 21:16:00
12:30 PM,42.8,42.8,100,29.88,2.5,SW,6.9,-,0.01,Rain,Light Rain,230,2013-02-08 21:30:00
12:37 PM,42.8,42.8,100,29.89,7.0,WSW,6.9,-,0.01,,Overcast,240,2013-02-08 21:37:00
12:51 PM,42.8,42.8,100,29.90,1.0,SW,9.2,-,0.01,,Overcast,230,2013-02-08 21:51:00
12:53 PM,42.1,42.1,100,29.90,1.0,SW,9.2,-,0.01,Rain,Light Rain,230,2013-02-08 21:53:00
1:10 PM,42.8,42.8,100,29.90,3.0,WSW,8.1,-,0.00,,Overcast,250,2013-02-08 22:10:00
1:24 PM,42.8,42.8,100,29.91,1.8,WSW,8.1,-,0.00,,Overcast,250,2013-02-08 22:24:00
1:37 PM,42.8,42.8,100,29.91,3.0,WSW,9.2,-,0.00,Rain,Light Rain,240,2013-02-08 22:37:00
1:50 PM,42.8,41.0,93,29.92,9.0,WSW,10.4,-,0.00,,Overcast,240,2013-02-08 22:50:00
1:53 PM,42.1,41.0,96,29.92,10.0,WSW,10.4,-,0.00,,Overcast,240,2013-02-08 22:53:00
2:30 PM,42.8,41.0,93,29.93,10.0,WSW,12.7,-,N/A,,Overcast,250,2013-02-08 23:30:00
2:37 PM,42.8,41.0,93,29.93,10.0,WSW,9.2,-,N/A,,Overcast,250,2013-02-08 23:37:00
2:53 PM,42.1,39.9,92,29.94,10.0,West,10.4,-,N/A,,Overcast,260,2013-02-08 23:53:00
3:53 PM,42.1,39.9,92,29.96,10.0,West,3.5,-,N/A,,Overcast,280,2013-02-09 00:53:00
4:18 PM,42.8,39.2,87,29.99,10.0,NW,4.6,-,0.00,,Overcast,310,2013-02-09 01:18:00
4:25 PM,42.8,39.2,87,29.99,5.0,West,3.5,-,0.00,Rain,Light Rain,260,2013-02-09 01:25:00
4:53 PM,41.0,39.0,93,30.00,6.0,WSW,4.6,-,0.01,Rain,Light Rain,250,2013-02-09 01:53:00
5:53 PM,41.0,39.9,96,30.01,10.0,WNW,4.6,-,0.00,,Overcast,290,2013-02-09 02:53:00
6:02 PM,41.0,39.2,93,30.01,10.0,NNW,4.6,-,N/A,,Overcast,330,2013-02-09 03:02:00
6:48 PM,39.2,39.2,100,30.03,9.0,East,3.5,-,N/A,,Overcast,100,2013-02-09 03:48:00
6:53 PM,39.9,39.0,97,30.03,10.0,Calm,Calm,-,N/A,,Overcast,0,2013-02-09 03:53:00
7:08 PM,39.2,39.2,100,30.04,10.0,Calm,Calm,-,N/A,,Overcast,0,2013-02-09 04:08:00
7:23 PM,41.0,39.2,93,30.05,10.0,Calm,Calm,-,N/A,,Overcast,0,2013-02-09 04:23:00
7:37 PM,41.0,39.2,93,30.05,10.0,Calm,Calm,-,N/A,,Overcast,0,2013-02-09 04:37:00
7:53 PM,41.0,39.0,93,30.06,5.0,SSE,4.6,-,0.00,Rain,Light Rain,160,2013-02-09 04:53:00
8:03 PM,41.0,39.2,93,30.07,7.0,South,4.6,-,0.00,,Overcast,190,2013-02-09 05:03:00
8:53 PM,39.9,39.0,97,30.08,10.0,East,4.6,-,0.00,,Overcast,90,2013-02-09 05:53:00
9:53 PM,39.9,39.0,97,30.09,10.0,East,3.5,-,N/A,,Mostly Cloudy,100,2013-02-09 06:53:00
10:09 PM,39.2,39.2,100,30.09,10.0,Calm,Calm,-,N/A,,Scattered Clouds,0,2013-02-09 07:09:00
10:53 PM,39.0,37.9,96,30.11,10.0,SE,4.6,-,N/A,,Mostly Cloudy,130,2013-02-09 07:53:00
11:53 PM,39.0,37.9,96,30.13,10.0,East,4.6,-,N/A,,Overcast,100,2013-02-09 08:53:00